CST,Max TemperatureF,Mean TemperatureF,Min TemperatureF,Max Dew PointF,MeanDew PointF,Min DewpointF,Max Humidity, Mean Humidity, Min Humidity, Max Sea Level PressureIn, Mean Sea Level PressureIn, Min Sea Level PressureIn, Max VisibilityMiles, Mean VisibilityMiles, Min VisibilityMiles, Max Wind SpeedMPH, Mean Wind SpeedMPH, Max Gust SpeedMPH,PrecipitationIn, CloudCover, Events, WindDirDegrees
2013-2-1,63,43,23,26,20,14,92,53,14,30.28,30.16,30.00,10,9,5,26,12,31,0.00,2,,176
2013-2-2,61,46,30,24,18,14,69,43,16,30.32,30.24,30.05,10,10,10,22,10,26,0.00,4,,50
2013-2-3,62,46,29,45,29,18,66,47,27,30.29,30.09,29.84,10,10,10,25,13,33,0.00,6,,207
2013-2-4,66,53,40,44,23,14,77,45,13,29.96,29.85,29.77,10,10,10,24,12,31,0.00,2,,7
2013-2-5,72,51,30,25,17,8,58,34,9,29.98,29.91,29.85,10,10,10,17,8,21,0.00,0,,259
2013-2-6,73,53,33,40,31,21,100,58,15,29.98,29.86,29.71,10,7,0,22,10,28,0.00,3,Fog,160
2013-2-7,61,48,34,28,24,20,48,37,25,30.19,29.98,29.75,10,10,6,32,16,41,0.00,1,,351
2013-2-8,58,43,27,25,18,15,69,44,19,30.24,30.12,29.95,10,10,10,21,12,25,0.00,5,,114
2013-2-9,71,55,39,41,26,13,55,35,14,29.92,29.71,29.49,10,9,2,35,17,43,0.00,4,,185
2013-2-10,59,48,36,16,9,3,48,29,10,29.97,29.83,29.71,10,10,9,32,16,37,0.00,2,,280
2013-2-11,54,43,31,25,20,10,58,42,26,30.10,30.00,29.91,10,10,10,23,15,29,0.00,3,,98
2013-2-12,41,35,29,36,32,27,100,80,59,30.13,29.95,29.83,10,7,1,24,12,30,0.48,6,Rain-Snow-Thunderstorm,16
2013-2-13,56,41,25,30,24,18,100,62,24,30.11,30.03,29.93,10,10,8,20,9,23,0.00,0,,248
2013-2-14,59,43,27,33,25,20,85,55,24,30.16,30.00,29.92,10,10,10,25,8,31,0.00,0,,355
2013-2-15,42,36,29,32,24,20,89,65,41,30.40,30.33,30.19,10,10,10,24,8,29,0.00,4,,355
2013-2-16,64,44,23,26,19,11,88,50,12,30.40,30.24,30.01,10,10,10,20,9,26,0.00,0,,257
2013-2-17,72,51,29,23,13,0,63,35,6,29.98,29.82,29.63,10,10,10,30,16,37,0.00,1,,223
2013-2-18,56,45,34,28,20,12,53,36,19,30.09,29.89,29.62,10,10,10,29,14,38,0.00,0,,342
2013-2-19,55,43,30,40,24,15,93,58,22,30.20,30.07,29.97,10,9,5,28,15,32,0.04,6,Rain,136
2013-2-20,41,39,37,40,38,37,100,96,92,29.99,29.76,29.58,10,3,0,26,19,31,0.24,8,Fog-Rain-Thunderstorm,124
2013-2-21,52,41,30,38,33,28,100,77,54,29.94,29.69,29.58,10,6,0,32,14,39,0.21,5,Fog-Rain-Snow-Thunderstorm,56
2013-2-22,46,35,24,31,25,20,92,71,49,30.08,30.00,29.93,10,10,8,18,7,22,0.00,2,,113
2013-2-23,60,44,27,27,19,8,92,53,14,29.99,29.87,29.71,10,10,7,21,11,26,0.00,1,,198
2013-2-24,70,52,34,32,23,12,76,44,11,29.70,29.60,29.44,10,10,7,33,15,44,0.00,3,,242
2013-2-25,37,32,27,30,28,21,100,88,75,29.94,29.74,29.59,10,3,0,48,25,59,0.34,7,Fog-Snow,334
2013-2-26,58,39,20,37,25,16,92,64,35,29.92,29.85,29.72,10,10,10,20,8,25,0.00,1,,305
2013-2-27,46,38,29,29,26,23,85,67,49,30.28,30.18,29.95,10,10,10,28,15,35,0.00,1,,333
2013-2-28,53,39,25,28,25,22,92,63,33,30.34,30.26,30.20,10,10,10,13,5,21,0.00,0,,320